This demonstration page uses our WeatherBlox Daily Observations layout. Learn more.

Left ArrowRight Arrow

41.55636, -103.73856

Hourly Observations for January 3, 2021

Temp ( °F °C ) Dew Point ( °F °C ) Humidity (%) Winds ( mph kmh ) Pressure ( in mb ) Visibility ( mi km ) Precip ( " mm )
12:58 am 00:58 Clear 29 -1.6 16 -8.7 59 59 W 10 17 29.93 1014 10 16.0934 0 0
1:58 am 01:58 Partly Cloudy 28 -2 16 -8.7 61 61 WNW 16 26 29.93 1014 10 16.0934 0 0
2:58 am 02:58 Clear 28 -2.5 16 -8.9 62 62 WNW 12 19 29.93 1014 10 16.0934 0 0
3:58 am 03:58 Clear 27 -2.8 16 -9 63 63 WNW 12 19 29.96 1014 10 16.0934 0 0
4:58 am 04:58 Clear 26 -3.5 15 -9.2 65 65 W 9 15 29.96 1015 10 16.0934 0 0
5:58 am 05:58 Clear 21 -6.2 13 -10.4 72 72 WSW 12 19 29.97 1015 10 16.0934 0 0
6:58 am 06:58 Clear 22 -5.3 14 -9.9 70 70 SW 6 9 29.95 1014 10 16.0934 0 0
7:58 am 07:58 Sunny 23 -5.1 14 -9.9 69 69 WSW 9 15 29.95 1014 10 16.0934 0 0
8:58 am 08:58 Sunny 34 1.1 20 -6.9 56 56 WSW 7 11 29.93 1013 10 16.0934 0 0
9:58 am 09:58 Sunny 42 5.6 17 -8.1 37 37 WNW 12 19 29.88 1012 10 16.0934 0 0
10:58 am 10:58 Sunny 45 7.3 16 -9.1 30 30 WNW 15 24 29.84 1011 10 16.0934 0 0
11:58 am 11:58 Sunny 49 9.3 17 -8.5 28 28 WNW 26 43 29.8 1009 10 16.0934 0 0
12:58 pm 12:58 Sunny 49 9.4 16 -8.8 27 27 WNW 25 41 29.79 1009 10 16.0934 0 0
1:58 pm 13:58 Sunny 50 9.8 15 -9.3 25 25 WNW 33 54 29.79 1009 10 16.0934 0 0
2:58 pm 14:58 Sunny 47 8.3 20 -6.6 34 34 WNW 32 52 29.81 1010 10 16.0934 0 0
3:58 pm 15:58 Mostly Cloudy 45 7 21 -5.9 40 40 WNW 33 54 29.83 1010 10 16.0934 0 0
4:58 pm 16:58 Mostly Cloudy 44 6.8 23 -5.2 42 42 WNW 31 50 29.86 1011 10 16.0934 0 0
5:58 pm 17:58 Cloudy 44 6.5 23 -5.1 44 44 WNW 30 48 29.92 1013 10 16.0934 0 0
6:58 pm 18:58 Cloudy 43 6 23 -5.2 45 45 WNW 24 39 29.95 1014 10 16.0934 0 0
7:58 pm 19:58 Mostly Cloudy 42 5.8 23 -5.1 46 46 NW 24 39 29.96 1015 10 16.0934 0 0
8:58 pm 20:58 Mostly Cloudy 40 4.7 24 -4.6 51 51 NW 28 44 29.96 1014 10 16.0934 0 0
9:58 pm 21:58 Mostly Clear 38 3.5 24 -4.6 56 56 NW 21 33 29.95 1014 10 16.0934 0 0
10:58 pm 22:58 Clear 36 2.3 24 -4.5 61 61 WNW 16 26 29.97 1015 10 16.0934 0 0
11:58 pm 23:58 Mostly Cloudy 40 4.3 24 -4.7 52 52 WNW 22 35 29.96 1015 10 16.0934 0 0

Powered by AerisWeather